Location: Camaret
(48.2753°N, 4.5961°W)
Time: 04:31:18
(UTC+00:00)

MOS 1 Rocket - Pass Details

Date: 29 October 2020
Orbit: 615 x 829 km, 97.4° (Epoch: 01 December)

Event Time Altitude Azimuth Distance (km) Brightness Sun altitude
Rises 19:40:10 0° 9° (N) 3,038 6.6 -26.5°
Reaches altitude 10° 19:42:23 10° 6° (N) 2,149 5.8 -26.9°
Maximum altitude 19:47:01 60° 287° (WNW) 828 3.8 -27.6°
Drops below altitude 10° 19:51:54 10° 209° (SSW) 2,268 6.1 -28.4°
Sets 19:54:17 0° 206° (SSW) 3,222 6.9 -28.8°
